Content
SEND FEEDBACK

Turkmenistan Flag

ASHGABAT, TURKMENISTAN


Home > Asia > Turkmenistan
Elevation: 236 meters     Latitude: 37 58N     Longitude: 058 20E

WEATHER
 
SELECT A DAY
Number of Records: 200,906;   Date Range: 3/15/97 - 3/22/16
 
SHARE

PRINT THIS DATA

[ ← Previous Day ]
WEATHER ALMANAC - 20 JANUARY, 2013
[ Next Day → ]
[ °F ]   °C
Weather ElementAverageHighLow
Temperature8.3 °C18 °C (3:00 pm)-1.7 °C (5:00 am)
Dewpoint-2.7 °C0.6 °C (11:00 am)-6 °C (11:00 pm)
Humidity49.3 %87 % (2:00 am)17 % (2:00 pm)
Barometer1014.2 hPa1019.6 hPa (2:00 am)1010.2 hPa (7:00 pm)
Wind Speed6.1 km/h14.3 km/h (6:00 am)
Weather ElementAverage
Visibility9.8 km
Wind DirectionESE (104.7 °)

Weather ElementTotal
Precipitation---
Heating Degree Days10.2 (Base 18.3)
Averaged from 39 records on 20 January, 2013
WEATHER CONDITIONS BREAKOUT
WIND DIRECTION BREAKOUT
WEATHER BY HOUR - 20 JANUARY, 2013
[ °F ]   °C
Local TimeTemperatureDewpointHumidityBarometerVisibilityWind DirectionWind SpeedGust SpeedPrecipitationEventsConditions
1:00 AM2 °C-1 °C81 %1017.9 hPa10 kmNorth (350°)3.5 km/hClear
2:00 AM1.7 °C-1.7 °C73 %1019.6 hPa9.7 kmSouth (170°)3.5 km/h
2:00 AM1 °C-1 °C87 %1017.3 hPa10 kmCalmClear
3:00 AM0 °C-2 °C87 %1017.3 hPa10 kmCalmClear
4:00 AM-1 °C-3 °C86 %1017.3 hPa10 kmCalmClear
5:00 AM-1.7 °C-4.4 °C75 %1018.3 hPa9.7 kmSE (130°)7.2 km/h
5:00 AM-1 °C-3 °C86 %1016.3 hPa10 kmESE (120°)10.8 km/hClear
5:30 AM0 °C-3 °C80 %1016.3 hPa10 kmSE (130°)10.8 km/hClear
6:00 AM2 °C-3 °C70 %1016.3 hPa10 kmSSE (150°)14.3 km/hClear
6:30 AM1 °C-4 °C70 %1015.2 hPa10 kmSE (140°)14.3 km/hClear
7:00 AM2 °C-4 °C65 %1015.2 hPa10 kmSSW (200°)10.8 km/hClear
7:30 AM3 °C-4 °C60 %1015.2 hPa10 kmSSE (160°)10.8 km/hClear
8:00 AM1.1 °C-4.4 °C55 %1016.9 hPa9.7 kmSSW (200°)7.2 km/hClear
8:00 AM2 °C-4 °C65 %1015.2 hPa10 kmSouth (190°)7.2 km/hMostly Cloudy
9:00 AM3 °C-3 °C65 %1015.2 hPa10 kmESE (110°)7.2 km/hMostly Cloudy
9:30 AM4 °C-2 °C65 %1015.2 hPa10 kmVariable3.5 km/hMostly Cloudy
10:00 AM6 °C-2 °C57 %1015.2 hPa10 kmVariable3.5 km/hMostly Cloudy
10:30 AM10 °C-1 °C47 %1015.2 hPa10 kmCalmMostly Cloudy
11:00 AM12 °C-3 °C35 %1015.2 hPa10 kmCalmMostly Cloudy
11:00 AM10 °C0.6 °C40 %1015.9 hPa9.7 kmSSW (210°)3.5 km/hClear
11:30 AM14 °C-3 °C31 %1014.2 hPa10 kmVariable3.5 km/hMostly Cloudy
12:00 PM15 °C-4 °C27 %1014.2 hPa10 kmCalmMostly Cloudy
12:30 PM16 °C-3 °C27 %1013.2 hPa10 kmNE (50°)7.2 km/hMostly Cloudy
1:00 PM15 °C-3 °C29 %1013.2 hPa10 kmVariable3.5 km/hMostly Cloudy
1:30 PM16 °C-3 °C27 %1012.2 hPa10 kmVariable3.5 km/hMostly Cloudy
2:00 PM16.7 °C-1.7 °C17 %1012.5 hPa9.7 kmESE (120°)7.2 km/hClear
2:00 PM17 °C-3 °C26 %1012.2 hPa10 kmEast (80°)7.2 km/hMostly Cloudy
3:00 PM18 °C-3 °C24 %1012.2 hPa10 kmVariable3.5 km/hMostly Cloudy
4:00 PM18 °C-5 °C21 %1011.2 hPa10 kmEast (80°)7.2 km/hMostly Cloudy
5:00 PM18 °C-5 °C21 %1011.2 hPa10 kmVariable3.5 km/hMostly Cloudy
5:00 PM17.8 °C-0.6 °C18 %1011.9 hPa9.7 kmEast (80°)7.2 km/hClear
6:00 PM14 °C-3 °C31 %1011.2 hPa10 kmESE (120°)7.2 km/hMostly Cloudy
7:00 PM12 °C-2 °C38 %1010.2 hPa10 kmSE (130°)14.3 km/hMostly Cloudy
8:00 PM10 °C0 °C38 %1011.5 hPa9.7 kmCalmClear
8:00 PM9 °C-1 °C50 %1010.2 hPa8 kmSSW (200°)7.2 km/hMostly Cloudy
9:00 PM10 °C-1 °C47 %1010.2 hPa10 kmSSW (200°)7.2 km/hMostly Cloudy
10:00 PM9 °C-2 °C46 %1010.2 hPa10 kmSouth (190°)14.3 km/hMostly Cloudy
11:00 PM10 °C-3.9 °C24 %1011.5 hPa9.7 kmWSW (240°)7.2 km/hPartly Cloudy
11:00 PM10 °C-6 °C32 %1010.2 hPa10 kmSW (230°)7.2 km/hMostly Cloudy
Hourly data recorded from UTAA, located 0 kilometers away from Ashgabat, Turkmenistan




STORIES FROM OUR PARTNERS